Probability
0 0 0 0 0 0 0 0 0 0 0 0 0 0 0 0 0 0 0 0 0 0 0 0 0 0 0 1 1 1 0 0 0 0 0 0 0 0 0 0 0 0 0 0 0 0 0 0 0
0 0 0 0 0 0 0 0 0 0 0 0 0 0 0 0 0 0 0 0 0 0 0 0 0 0 1 2 2 2 1 0 0 0 0 0 0 0 0 0 0 0 0 0 0 0 0 0 0
0 0 0 0 0 0 0 0 0 0 0 0 0 0 0 0 0 0 0 0 0 0 0 1 1 1 2 3 3 2 1 0 0 0 0 0 0 0 0 0 0 0 0 0 0 0 0 0 0
0 0 0 0 0 0 0 0 0 0 0 0 0 0 0 0 0 0 0 0 0 0 0 1 2 1 1 2 3 2 1 0 0 0 0 0 0 0 0 0 0 0 0 0 0 0 0 0 0
0 0 0 0 0 0 0 0 0 0 0 0 0 0 0 0 0 0 0 0 1 0 0 1 1 0 0 1 1 1 1 0 0 0 0 0 0 0 0 0 0 0 0 0 0 0 0 0 0
0 0 0 0 0 0 0 0 0 0 0 0 0 0 0 0 0 0 0 0 0 0 0 0 0 0 0 0 0 0 0 0 0 0 0 0 0 0 0 0 0 0 0 0 0 0 0 0 0
0 0 0 0 0 0 0 0 0 0 0 0 0 0 0 0 0 0 0 0 0 0 0 0 0 0 0 0 0 0 0 0 0 0 0 0 0 0 0 0 0 0 0 0 0 0 1 0 0
0 0 0 0 0 0 0 0 0 0 0 0 0 0 0 0 0 0 0 0 0 0 0 0 0 0 0 0 0 0 0 0 0 0 0 0 0 0 0 0 0 0 0 0 0 0 0 0 0
0 0 0 0 0 0 0 0 0 0 0 0 0 0 0 0 0 0 0 0 0 0 0 0 0 0 0 0 0 0 0 0 0 0 0 0 0 0 0 0 0 0 0 0 0 0 0 0 0
0 0 0 0 0 0 0 0 0 0 0 0 0 0 0 0 0 0 0 0 0 0 0 0 0 0 0 0 0 0 0 0 0 0 0 0 0 0 0 0 0 0 0 0 0 0 0 0 0
0 0 0 0 0 0 0 0 0 0 0 0 0 0 0 0 0 0 0 0 0 0 0 0 0 0 0 0 0 0 0 0 0 0 0 0 0 0 0 0 0 0 0 0 0 0 0 0 0
0 0 0 0 0 0 0 0 0 0 0 0 0 0 0 0 0 0 0 0 0 0 0 0 0 0 0 0 0 0 0 0 0 0 0 0 0 0 0 0 0 0 0 0 0 0 0 0 0
0 0 0 0 0 0 0 0 0 0 0 0 0 0 0 0 0 0 0 0 0 0 0 0 0 0 0 0 0 0 0 0 0 0 0 0 0 0 0 0 0 0 0 0 0 0 0 0 0
0 0 0 0 0 0 0 0 0 0 0 0 0 0 0 0 0 0 0 0 0 0 0 0 0 0 0 0 0 0 0 0 0 0 0 0 0 0 0 0 0 0 0 0 0 0 0 0 0
0 0 0 0 0 0 0 0 0 0 0 0 0 0 0 0 0 0 0 0 0 0 0 0 0 0 0 0 0 0 0 0 0 0 0 0 0 0 0 0 0 0 0 0 0 0 0 0 0
0 0 0 0 0 0 0 0 0 0 0 0 0 0 1 1 0 0 0 0 0 0 0 0 0 0 0 0 0 0 0 0 0 0 0 0 0 0 0 0 0 0 0 0 0 0 0 0 0
0 0 0 0 0 1 0 0 0 0 0 0 0 0 1 1 0 0 0 0 0 0 0 0 0 0 0 0 0 0 0 0 0 0 0 0 0 0 0 0 0 0 0 0 0 0 0 0 0
0 0 0 0 0 0 0 0 0 0 0 0 0 0 1 1 0 0 0 0 0 0 0 0 0 0 0 0 0 0 0 0 0 0 0 0 0 0 0 0 0 0 0 0 0 0 0 0 0
0 0 0 0 0 0 0 0 0 0 0 0 0 0 0 0 0 0 0 0 0 0 0 0 0 0 0 0 0 0 0 0 0 0 0 0 0 0 0 0 0 0 0 0 0 0 0 0 0
0 0 0 0 0 0 0 0 0 0 0 0 0 0 0 0 0 0 0 0 0 0 0 0 0 0 0 0 0 0 0 0 0 0 0 0 0 0 0 0 0 0 0 0 0 0 0 0 0
0 0 0 0 0 0 0 0 0 0 0 0 0 0 0 0 0 0 0 0 0 0 0 0 0 0 0 0 0 0 0 0 0 0 0 0 0 0 0 0 0 0 0 0 0 0 0 0 0
0 0 0 0 0 0 0 0 0 0 0 0 0 0 0 0 0 0 1 1 0 0 0 0 0 0 0 0 0 0 0 0 0 0 0 0 0 0 0 0 0 0 0 0 0 0 0 0 0
0 0 0 0 0 0 0 0 0 0 0 0 0 0 0 0 0 1 2 2 1 0 0 0 0 0 0 0 0 0 0 0 0 0 0 0 0 0 0 0 0 0 0 0 0 0 0 0 0
0 0 0 0 0 0 0 0 0 0 0 0 0 0 0 0 1 2 3 3 1 1 0 0 0 0 0 0 0 0 0 0 0 0 0 0 0 0 0 0 0 0 0 0 0 0 0 0 0
0 0 0 0 0 0 0 0 0 0 0 0 0 0 0 0 1 2 3 3 3 2 1 1 0 0 0 0 0 0 0 0 0 0 0 0 0 0 0 0 0 0 0 0 0 0 0 0 0
0 0 0 0 0 0 0 0 0 0 0 0 0 0 0 0 1 2 3 3 3 3 3 2 1 0 0 0 0 0 0 0 0 0 1 1 1 0 0 0 0 0 0 0 0 0 0 0 0
0 0 0 0 0 0 0 0 0 0 0 0 0 0 0 0 1 2 3 3 3 3 3 3 2 1 0 0 0 0 0 0 0 1 2 2 2 1 0 0 0 0 0 0 0 0 0 0 0
0 0 0 0 0 0 0 0 0 0 0 0 0 0 0 0 0 1 3 3 3 3 3 3 3 2 1 0 0 0 0 0 0 1 2 2 2 1 0 0 0 0 0 0 0 0 0 0 0
0 0 0 0 0 0 0 0 0 0 0 0 0 0 0 0 0 1 2 3 3 3 3 3 3 3 2 1 0 0 0 0 0 0 1 1 1 1 0 0 0 1 0 0 0 0 0 0 0
0 0 0 0 0 0 0 0 0 0 0 0 0 0 0 0 0 0 1 3 3 3 3 3 3 3 2 1 0 0 0 0 0 0 0 0 0 0 0 0 0 1 0 0 0 0 0 0 0
Wind_Speed
6 4 3 3 3 2 5 5 4 4 4 5 5 4 5 6 5 5 4 3 3 3 3 4 5 5 5 6 6 6 7 7 7 7 7 8 8 8 8 8 8 8 8 8 8 8 8 8 8
3 3 3 3 2 3 5 5 5 5 5 4 4 4 5 6 5 5 4 3 2 3 4 5 5 5 5 6 7 7 7 7 8 8 8 8 8 8 8 8 8 8 8 8 8 8 8 8 8
3 2 2 1 1 3 5 5 6 6 4 2 3 4 4 5 4 4 4 4 3 4 4 7 5 6 6 7 8 8 7 8 8 8 8 8 8 8 8 8 9 9 9 9 8 8 9 9 9
2 3 2 1 6 5 5 5 5 6 4 3 2 5 5 5 3 4 5 4 5 5 5 7 5 6 6 7 8 8 8 8 8 8 8 8 8 8 8 8 8 9 9 9 8 8 8 8 8
2 2 3 4 6 5 4 4 4 4 4 4 3 5 6 5 5 6 5 5 5 5 5 7 6 6 6 7 8 8 8 8 8 8 8 8 8 8 8 8 8 8 8 8 8 8 8 9 9
2 2 3 4 6 5 4 3 3 3 4 4 3 5 6 5 5 5 5 4 5 5 5 7 7 7 7 7 8 8 7 7 7 7 8 8 8 8 8 8 8 8 9 9 9 8 9 9 9
1 1 3 5 5 5 4 3 2 3 4 3 1 4 6 5 5 4 5 5 5 5 5 5 6 7 8 8 8 8 8 7 7 7 8 8 8 8 8 8 8 9 9 9 9 9 10 10 10
1 2 4 4 4 4 4 3 3 2 4 3 1 3 5 5 5 5 5 5 4 5 5 5 5 5 6 7 9 8 7 7 7 7 7 7 6 7 7 8 8 9 9 9 10 10 10 10 10
2 2 3 3 3 4 4 4 4 3 4 4 3 4 6 8 6 6 5 5 5 5 5 5 5 5 5 5 7 5 6 6 4 6 6 3 3 5 5 9 9 9 9 9 10 9 9 7 9
1 2 3 2 2 4 5 3 4 4 4 3 4 5 8 8 7 6 5 5 4 5 5 4 4 4 4 4 4 3 4 4 4 4 4 3 4 4 5 8 8 8 8 9 9 7 5 3 4
2 3 3 3 3 4 5 4 3 3 2 2 4 8 9 7 6 5 5 4 4 4 4 4 4 4 4 3 3 2 2 3 3 4 4 3 3 3 3 3 4 5 4 5 5 4 4 5 4
4 4 3 3 3 4 4 4 3 1 2 3 5 8 9 7 6 5 5 5 4 4 4 4 3 3 3 3 3 2 2 2 2 3 4 3 2 2 3 3 3 3 3 4 4 3 5 6 6
5 5 5 4 4 4 4 3 2 2 2 4 7 9 8 7 6 5 4 4 4 4 4 3 2 3 3 3 2 2 2 2 3 2 2 3 2 2 3 3 3 3 3 3 4 4 5 5 6
5 6 5 4 4 3 3 2 2 2 4 7 8 8 7 6 5 5 4 3 3 3 3 3 3 3 3 3 2 2 2 2 2 2 2 2 2 2 2 3 3 3 3 3 3 5 4 4 4
6 6 5 3 2 2 3 2 2 3 6 7 7 7 6 6 5 4 4 3 3 3 3 4 3 3 3 3 2 2 1 2 2 1 2 2 2 2 2 2 3 3 3 3 3 5 4 4 4
5 5 4 3 3 3 5 1 3 5 7 7 6 7 6 6 5 4 4 3 3 3 3 4 3 3 3 3 2 2 1 2 1 1 1 2 2 3 2 2 2 3 2 2 2 2 3 3 3
6 4 3 3 2 3 4 2 2 5 7 7 7 7 7 7 6 5 4 4 4 4 4 5 4 3 3 3 2 1 1 1 1 1 1 1 2 2 2 2 2 2 2 2 2 2 2 2 2
3 3 3 2 2 4 4 3 2 5 6 7 7 7 7 7 6 6 5 4 4 4 4 4 4 3 4 3 2 2 1 1 1 1 1 1 1 2 2 2 2 2 2 1 1 2 2 2 1
2 3 3 1 2 4 4 4 4 5 6 7 7 7 7 7 6 6 5 4 4 4 4 4 4 4 3 3 2 2 1 1 1 1 1 2 2 2 1 1 2 1 1 1 2 2 2 1 1
5 5 3 2 2 3 3 5 4 5 7 7 7 7 8 7 7 7 6 6 5 5 4 5 5 5 4 3 2 1 1 1 0 0 1 2 2 2 2 2 2 2 1 2 2 2 1 1 1
6 5 4 3 3 5 4 5 5 6 7 6 7 7 7 7 7 7 7 6 6 5 5 4 5 5 5 4 2 2 2 1 2 2 1 1 2 2 3 2 2 2 2 2 2 3 3 1 1
4 3 4 5 6 3 5 4 4 5 6 7 8 8 8 7 7 7 7 7 6 6 5 5 5 5 5 5 4 4 3 2 2 1 1 2 2 3 3 3 3 3 2 2 3 2 2 3 2
1 1 3 4 5 5 5 6 2 4 5 6 8 8 8 8 8 8 8 7 6 6 5 5 5 5 5 5 5 4 3 2 2 2 3 3 2 3 3 3 3 3 2 3 2 2 3 2 2
4 4 4 5 5 5 4 6 2 3 3 3 6 7 8 8 8 8 7 6 6 6 5 5 5 4 4 4 5 5 4 4 3 3 3 3 2 2 4 4 4 4 3 3 3 3 3 3 3
7 6 4 5 5 2 2 6 3 1 1 3 4 6 7 8 8 8 7 6 6 6 6 6 5 5 5 5 5 5 5 5 5 4 4 3 3 3 3 3 4 3 3 4 4 4 4 4 4
7 7 5 3 3 1 4 5 1 1 1 2 3 4 6 7 7 7 8 7 7 7 6 6 6 5 5 5 5 4 4 3 3 4 3 3 3 2 3 3 3 3 4 4 4 4 4 3 4
5 5 4 6 4 5 3 3 3 3 3 3 3 4 5 7 7 7 7 7 7 7 7 7 6 6 5 5 5 4 4 4 4 3 3 2 2 2 3 3 4 4 4 4 4 4 4 4 4
4 3 4 6 5 5 3 4 2 3 3 3 3 4 4 5 6 7 7 7 7 6 6 6 6 6 6 5 4 4 4 4 4 3 3 3 2 2 3 4 4 4 4 4 4 4 4 4 3
5 5 5 4 5 5 4 0 1 2 1 3 3 3 4 5 5 6 6 6 6 6 6 6 6 6 5 5 4 4 4 4 4 3 3 3 2 3 4 4 4 4 4 5 4 5 5 5 5
5 5 7 6 4 5 6 2 3 1 1 2 2 2 3 4 4 5 5 6 6 6 6 5 5 5 5 5 4 4 4 4 4 4 4 3 3 3 4 4 4 4 4 5 5 5 5 5 5
Wind_Direction
154 156 185 223 219 132 80 77 79 93 77 61 56 52 54 39 22 55 75 72 64 84 91 105 86 88 86 87 86 83 86 88 89 88 87 89 88 86 85 84 85 81 76 71 69 72 72 71 70
145 164 217 238 232 127 92 88 88 74 84 95 73 64 68 66 49 75 92 79 82 86 86 86 90 84 82 87 86 82 78 82 86 86 84 85 86 84 83 82 80 78 76 72 71 71 70 69 70
148 219 248 221 92 74 95 90 95 93 80 76 82 54 49 60 66 77 81 103 99 87 85 87 83 87 85 87 89 88 84 85 86 85 83 81 83 85 85 82 78 76 75 74 72 71 70 68 68
199 206 213 145 95 72 82 101 113 120 99 66 95 92 83 54 55 83 100 106 98 90 90 93 79 88 89 91 95 93 92 91 88 88 84 81 81 81 83 82 79 77 75 73 71 73 72 71 70
220 224 154 119 96 90 88 97 112 100 91 75 86 97 92 74 84 98 101 96 91 90 91 95 82 87 89 88 92 93 94 93 90 88 84 81 82 83 81 80 77 74 72 72 72 74 73 70 68
200 210 159 124 111 107 107 114 117 93 92 90 93 102 92 100 101 98 100 93 88 88 87 94 95 85 83 81 83 82 90 90 87 83 80 80 80 84 83 81 78 75 74 73 71 72 73 70 67
221 150 115 121 125 123 118 127 113 96 94 77 68 101 111 109 95 102 101 96 91 93 91 91 100 106 97 79 71 72 79 83 82 78 78 76 78 80 82 83 79 78 76 73 69 69 70 68 66
287 155 132 129 135 112 115 117 76 71 84 78 36 95 121 126 120 117 109 101 101 101 97 96 95 96 105 103 81 72 76 78 80 80 77 77 89 94 90 90 79 78 76 74 73 70 69 68 65
232 183 135 127 133 116 132 132 107 91 105 98 70 56 101 127 132 125 119 114 113 107 103 103 102 98 93 90 96 99 98 90 99 102 99 105 86 84 91 72 72 76 76 75 74 72 68 72 75
223 145 105 82 99 121 135 130 131 145 127 117 112 104 121 136 137 131 127 121 115 114 110 109 112 108 102 94 97 88 89 92 84 79 84 75 69 66 72 88 82 81 84 88 79 77 84 67 70
86 95 109 105 102 128 135 126 134 156 123 117 137 138 143 146 143 135 125 116 112 116 117 113 117 110 104 103 88 77 81 80 79 76 79 75 78 87 82 90 109 103 102 89 94 92 66 62 59
110 87 101 105 116 135 136 134 133 151 63 86 130 141 149 154 151 146 138 124 122 120 123 121 124 124 120 113 108 108 108 94 78 74 73 72 70 68 72 75 73 79 77 75 71 67 71 62 58
126 116 101 102 110 122 128 129 117 122 120 121 134 144 153 157 156 152 142 135 130 133 143 140 139 136 130 117 113 119 103 90 89 75 72 74 78 77 82 77 75 76 79 82 75 71 68 62 54
119 121 118 118 129 137 134 134 156 123 140 144 149 155 162 162 160 157 156 156 147 149 149 143 152 146 149 141 143 121 107 108 90 88 86 88 85 85 84 82 79 73 70 70 78 76 71 66 59
140 137 136 150 176 176 202 179 166 141 158 160 164 163 163 167 167 174 175 181 174 170 159 151 151 155 158 145 126 113 114 107 105 98 86 96 91 92 91 77 82 82 80 84 75 78 71 68 68
174 187 184 160 195 193 234 235 127 158 175 173 175 174 175 177 183 187 188 190 190 185 167 150 161 170 158 146 142 133 121 96 86 80 60 79 96 91 88 92 92 90 89 87 85 82 80 78 69
196 206 199 162 187 205 230 252 139 172 187 188 187 187 186 184 188 192 199 199 194 191 174 163 163 169 160 152 143 132 121 108 92 94 67 70 96 105 108 96 96 97 96 90 95 94 86 85 75
193 208 214 203 163 203 225 241 207 189 201 204 199 199 195 195 192 193 198 201 190 188 182 166 158 168 157 163 164 155 142 125 114 121 127 100 115 113 109 121 117 111 118 117 127 126 117 85 86
243 235 238 231 196 221 234 251 238 210 207 213 208 205 204 201 194 189 192 195 188 184 189 176 183 175 169 174 185 184 174 178 163 153 164 168 170 156 139 151 135 125 128 147 150 141 143 129 146
219 234 234 196 182 234 249 261 238 209 213 216 214 208 206 202 197 190 194 193 195 194 201 195 195 190 185 187 192 184 177 189 160 194 200 198 186 174 178 180 164 157 160 184 180 181 202 152 206
227 240 237 229 209 222 255 245 217 204 210 213 220 221 212 206 206 196 197 199 198 200 203 208 206 198 194 189 183 162 160 178 182 198 196 201 202 199 201 190 189 187 195 196 206 203 209 198 188
235 244 239 230 234 229 244 270 209 196 205 212 213 215 216 208 208 201 200 201 200 202 203 208 206 204 196 191 199 205 212 213 215 201 185 191 200 202 209 202 202 200 211 216 219 215 227 223 209
227 193 219 231 250 251 230 261 210 183 214 212 209 209 210 207 205 202 202 203 203 198 199 206 205 203 197 204 204 216 223 227 212 199 194 201 196 207 213 216 210 208 214 222 225 224 236 231 239
161 172 186 215 241 250 232 250 241 186 230 220 204 202 202 203 202 200 195 199 202 194 192 199 200 196 197 207 209 215 219 224 220 222 214 209 199 210 214 217 216 213 215 220 225 225 223 236 233
210 229 226 213 216 235 179 247 258 45 273 256 222 204 199 198 200 197 194 197 201 197 197 198 199 198 199 206 213 216 221 226 228 231 227 225 215 213 215 218 221 219 221 224 226 229 230 226 227
214 243 268 279 271 249 202 244 239 56 280 253 221 203 195 194 198 197 196 195 197 199 200 202 202 204 203 210 216 219 219 228 238 239 239 232 234 231 222 223 223 221 220 222 223 231 226 224 222
212 228 282 282 273 270 233 229 224 193 208 201 199 191 191 192 193 196 195 196 195 197 199 200 200 203 203 212 216 217 220 222 230 237 237 240 231 223 226 229 224 216 213 219 218 223 217 218 223
268 239 223 247 268 266 250 248 228 187 197 200 207 204 197 194 194 194 193 194 194 194 197 198 203 205 206 212 212 211 215 217 227 230 227 233 228 216 222 231 228 218 213 213 214 222 221 219 217
193 208 234 248 268 283 285 270 42 287 239 219 215 207 198 197 196 192 185 185 189 189 191 195 202 208 210 215 216 213 212 214 218 225 229 230 222 222 228 228 229 221 214 213 213 224 219 225 220
243 240 233 249 248 257 281 302 81 284 288 264 235 200 186 191 192 184 179 179 183 187 190 196 201 204 208 215 216 214 209 208 213 217 220 223 223 227 235 230 226 226 223 217 216 220 221 225 227